Regional Weather Roundup
Issued by NWS

Home | Current Version | Previous Version | Graphics & Text | Print | Product List | Glossary On
Versions: 1 2 3 4 5 6 7 8 9 10 11 12 13 14 15 16 17 18 19 20 21 22 23 24 25 26 27 28 29 30 31 32 33 34 35 36 37 38 39 40 41 42 43 44 45 46 47 48 49 50
000
ASUS43 KOAX 260902
RWRNE

WEATHER ROUNDUP FOR NEBRASKA
NATIONAL WEATHER SERVICE OMAHA NE
300 AM CST MON JAN 26 2015

NOTES: SATELLITE DATA IS BEING USED TO AUGMENT CLOUD COVER ABOVE
       12000 FEET.
       "FAIR" INDICATES FEW OR NO CLOUDS BELOW 12,000 FEET WITH NO
       SIGNIFICANT WEATHER AND/OR OBSTRUCTIONS TO VISIBILITY.

  * THESE STATIONS DO NOT REPORT WEATHER SUCH AS RAIN...SNOW OR FOG.

NEZ001>004-019>022-054>056-261000-
NEBRASKA PANHANDLE

CITY           SKY/WX    TMP DP  RH WIND       PRES   REMARKS
SCOTTSBLUFF    CLOUDY    37  31  78 NW9       30.12R WCI  30
ALLIANCE       MOCLDY    35  30  82 W10       30.06S WCI  27
CHADRON        MOCLDY    44  30  57 NW16      30.05S
SIDNEY         MOCLDY    42  30  62 NW14      30.12S
$$

NEZ057>060-069>072-079>082-261000-
SOUTHWEST NEBRASKA

CITY           SKY/WX    TMP DP  RH WIND       PRES   REMARKS
NORTH PLATTE   CLEAR     33  29  85 W9        30.02R WCI  25
IMPERIAL       PTCLDY    41  30  65 W13       30.06S
MCCOOK         CLEAR     39  30  70 W15       30.04R WCI  31
$$

NEZ005>010-023>029-035>040-094-261000-
NORTH CENTRAL NEBRASKA

CITY           SKY/WX    TMP DP  RH WIND       PRES   REMARKS
VALENTINE      CLEAR     32  29  88 W8        29.95R WCI  25
BROKEN BOW     CLEAR     43  32  65 NW14      29.96S
ORD            CLEAR     25  22  88 CALM      29.94F
$$

NEZ041-046>049-061>064-073>077-083>087-261000-
SOUTH CENTRAL NEBRASKA

CITY           SKY/WX    TMP DP  RH WIND       PRES   REMARKS
GRAND ISLAND   CLEAR     32  27  81 S9        29.98F WCI  24
HASTINGS       CLEAR     31  25  78 S7        29.98F WCI  24
KEARNEY *      CLEAR     34  25  69 SW12      29.98F WCI  25
$$

NEZ011>018-030>034-042>045-261000-
NORTHEAST NEBRASKA

CITY           SKY/WX    TMP DP  RH WIND       PRES   REMARKS
NORFOLK        CLEAR     36  29  75 SW20      29.90F WCI  25
COLUMBUS *     PTCLDY    34  25  69 SW10      29.97F WCI  26
TEKAMAH        CLEAR     29  27  92 S8        29.97F WCI  21
$$

NEZ050>053-065>068-078-088>093-261000-
SOUTHEAST NEBRASKA

CITY           SKY/WX    TMP DP  RH WIND       PRES   REMARKS
LINCOLN        PTCLDY    31  28  89 S6        30.02F WCI  25
OMAHA EPPLEY   CLEAR     28  26  92 S9        30.00F WCI  19
FALLS CITY     CLEAR     28  25  88 S5        30.06F WCI  23
$$

NEZ044-045-051>053-067-261000-
OMAHA AREA

CITY           SKY/WX    TMP DP  RH WIND       PRES   REMARKS
OMAHA EPPLEY   CLEAR     28  26  92 S9        30.00F WCI  19
OFFUTT AFB     CLEAR     24  22  94 SE3       29.99F
$$


USA.gov is the U.S. government's official web portal to all federal, state and local government web resources and services.